(6) Hebe
ephemeris date magn radius delta ra dec elong phase
Opposition25 Aug 20257.62.035 AU1.029 AU22h32m-17°02'172.5°3.7°
Today18 Oct 20258.71.966 AU1.252 AU22h16m-24°52'121.5°25.6°
(6) Hebe - 2025-10-18
astro.vanbuitenen.nl


 
-1 year
-1 month
-1 day
Now
+1 day
+1 month
+1 year

The interactive orbit chart above shows the body's path through the solar system and its position at the given date. Green and blue lines are shown perpendicular to the ecliptic plane: Green if the path is above the ecliptic plane, blue if it is below. (Left-click and drag to rotate the view; Right-click and drag to move the view; Use scroll wheel to zoom in our out.)

The orbital elements of Hebe are:

            e (Eccentricity)                : 0.2023356
            a (Semimajor axis)              : 2.4258792
            i (Inclination)                 : 14.73542
            Ω (Longitude of ascending node) : 138.61439
            ω (Argument of perihelion)      : 239.67015
            M (Mean anomaly)                : 300.41267
            Epoch                           : 2025 May 05

            L (Longitude of perihelion)     : 197.44262
            B (Latitude of perihelion)      : -12.68218
            P (Orbital period in years)     : 3.78            
        

The light curve chart below shows the estimated development of the minor planet's magnitude.


The all-sky chart below shows the path of the minor planet over the same period as the light curve. The current position is marked yellow.





The following chart shows the path of the minor planet in the next few days. The field of view is optimized for (~10x50) binoculars and finderscopes.




Ephemerides:
Date       Time       RA (2000)    DEC (2000)    delta   radius  elong  phase   PA    magn
2025-10-18 00:00 UT   22 16 26.6   -24 52 09     1.252    1.966  121.5   25.6    60    8.7 
2025-10-18 08:50 UT   22 16 37.0   -24 52 04     1.255    1.965  121.2   25.7    60    8.7 
2025-10-19 00:00 UT   22 16 55.3   -24 51 50     1.260    1.965  120.6   25.9    60    8.8 
2025-10-20 00:00 UT   22 17 25.9   -24 51 13     1.269    1.964  119.8   26.1    61    8.8 
2025-10-21 00:00 UT   22 17 58.4   -24 50 18     1.277    1.963  118.9   26.4    61    8.8 
2025-10-22 00:00 UT   22 18 32.8   -24 49 05     1.286    1.962  118.1   26.6    61    8.8 
2025-10-23 00:00 UT   22 19 09.1   -24 47 35     1.294    1.961  117.3   26.8    61    8.8 
2025-10-24 00:00 UT   22 19 47.3   -24 45 48     1.303    1.960  116.5   27.0    61    8.9 
2025-10-25 00:00 UT   22 20 27.3   -24 43 44     1.312    1.959  115.6   27.2    62    8.9 
2025-10-26 00:00 UT   22 21 09.2   -24 41 24     1.321    1.958  114.8   27.4    62    8.9 
2025-10-27 00:00 UT   22 21 52.8   -24 38 47     1.329    1.958  114.0   27.6    62    8.9 
2025-10-28 00:00 UT   22 22 38.2   -24 35 55     1.338    1.957  113.2   27.8    62    8.9 
2025-10-29 00:00 UT   22 23 25.4   -24 32 47     1.347    1.956  112.5   28.0    62    9.0 
2025-10-30 00:00 UT   22 24 14.3   -24 29 23     1.357    1.955  111.7   28.2    63    9.0 
2025-10-31 00:00 UT   22 25 04.8   -24 25 44     1.366    1.954  110.9   28.3    63    9.0 
2025-11-01 00:00 UT   22 25 57.0   -24 21 51     1.375    1.954  110.2   28.5    63    9.0 
2025-11-02 00:00 UT   22 26 50.9   -24 17 43     1.384    1.953  109.4   28.6    63    9.0 
2025-11-03 00:00 UT   22 27 46.3   -24 13 20     1.394    1.952  108.7   28.8    63    9.0 
2025-11-04 00:00 UT   22 28 43.3   -24 08 43     1.403    1.951  107.9   28.9    63    9.1 
2025-11-05 00:00 UT   22 29 41.8   -24 03 53     1.412    1.951  107.2   29.1    64    9.1 
2025-11-06 00:00 UT   22 30 41.8   -23 58 49     1.422    1.950  106.4   29.2    64    9.1 
2025-11-07 00:00 UT   22 31 43.3   -23 53 32     1.431    1.949  105.7   29.3    64    9.1 
2025-11-08 00:00 UT   22 32 46.2   -23 48 01     1.441    1.949  105.0   29.4    64    9.1 
2025-11-09 00:00 UT   22 33 50.6   -23 42 18     1.450    1.948  104.3   29.5    64    9.2 
2025-11-10 00:00 UT   22 34 56.3   -23 36 22     1.460    1.947  103.6   29.6    64    9.2 
2025-11-11 00:00 UT   22 36 03.4   -23 30 13     1.470    1.947  102.9   29.7    64    9.2 
2025-11-12 00:00 UT   22 37 11.9   -23 23 52     1.479    1.946  102.2   29.8    64    9.2 
2025-11-13 00:00 UT   22 38 21.6   -23 17 18     1.489    1.946  101.5   29.9    65    9.2 
2025-11-14 00:00 UT   22 39 32.7   -23 10 33     1.499    1.945  100.8   30.0    65    9.2 
2025-11-15 00:00 UT   22 40 45.0   -23 03 36     1.509    1.944  100.1   30.1    65    9.2 
2025-11-16 00:00 UT   22 41 58.6   -22 56 27     1.519    1.944   99.5   30.1    65    9.3 
2025-11-17 00:00 UT   22 43 13.4   -22 49 06     1.528    1.943   98.8   30.2    65    9.3 


    Terminology:
            
    delta:  distance between minor planet and earth in AU
    radius: distance between minor planet and sun in AU
    magn:   magnitude (brightness) estimate    
    ra:     right ascension in hours (24h = 360deg)
    dec:    declination in degrees
    elong:  elongation in degrees (angle sun-earth-minor planet)    
    phase:  phase angle in degrees (angle sun-minor planet-earth)        
    AU:     Astronomical Unit (mean distance between earth and sun: 149597870.7 km
    

Orbital elements provided by the MPC (Minor Planet Center).
Calculations by a modified version of AAPlus, a C# implementation of the AA+ project by PJ Naughter from the algorithms presented in the book "Astronomical Algorithms" by Jean Meeus.
NGC2000 dso catalog and star labels from VizieR as provided by the Strasbourg astronomical Data Center.
Tycho2 catalog from the ESO archive.